Vorticity
nan nan nan nan nan nan nan nan nan nan nan nan nan nan nan nan nan nan nan nan nan nan nan nan nan nan nan nan nan nan nan nan
nan 14 12 12 11 11 9 9 9 7 8 7 7 7 7 7 11 12 8 7 8 5 6 8 7 8 8 6 8 8 6 nan
nan 12 15 13 14 12 11 11 11 8 6 8 10 10 10 10 9 12 12 9 7 6 7 8 7 7 9 8 4 6 9 nan
nan 9 10 10 11 12 14 15 14 11 7 4 6 6 10 13 10 10 12 11 9 7 5 8 8 6 8 9 8 5 6 nan
nan 7 8 9 9 10 11 13 15 14 11 8 7 4 3 7 10 8 10 11 8 8 7 7 6 7 9 8 8 6 6 nan
nan 6 9 9 9 11 12 15 17 16 12 8 8 6 5 10 14 14 9 9 11 9 7 6 6 8 10 9 7 6 5 nan
nan 8 9 9 9 10 11 17 23 22 15 12 9 6 4 7 10 9 10 10 12 11 9 8 7 8 9 9 10 8 5 nan
nan 8 8 9 8 11 10 11 21 24 17 11 11 11 11 9 6 9 9 7 10 13 9 7 8 9 8 9 9 9 8 nan
nan 9 8 9 9 9 11 10 11 18 23 15 10 10 10 12 11 10 9 8 10 12 12 10 9 8 9 8 8 10 9 nan
nan 12 11 8 10 11 9 11 11 10 18 21 14 11 10 10 10 10 11 10 12 12 11 10 11 10 9 7 8 9 10 nan
nan 10 12 12 9 10 10 11 10 11 12 18 15 11 10 12 11 11 9 9 10 11 10 11 11 10 11 8 8 10 8 nan
nan 9 12 13 9 9 11 10 11 12 13 17 19 15 10 9 9 10 10 11 11 10 10 11 9 9 9 9 9 9 8 nan
nan 11 10 10 12 11 10 10 10 12 13 18 22 14 12 11 10 11 10 9 10 11 11 9 9 9 9 10 10 10 10 nan
nan 10 11 10 10 10 10 10 11 13 14 14 12 17 17 14 13 11 10 9 9 8 9 9 9 9 9 10 10 9 11 nan
nan 10 9 10 10 10 10 10 11 12 14 13 10 12 17 19 12 11 11 10 10 10 9 10 11 10 9 7 9 10 11 nan
nan 10 10 10 10 10 10 11 12 12 11 11 10 12 14 15 16 14 13 14 13 12 11 10 10 9 6 9 10 11 12 nan
nan 8 10 10 11 11 10 10 10 12 12 11 10 10 12 11 13 12 13 11 12 14 14 12 11 5 4 18 16 11 11 nan
nan 10 11 9 10 11 10 11 11 12 12 9 10 11 12 10 12 11 10 11 11 10 11 12 9 4 10 15 20 17 11 nan
nan nan nan nan nan nan nan nan nan nan nan nan nan nan nan nan nan nan nan nan nan nan nan nan nan nan nan nan nan nan nan nan
CAPE
0 0 0 0 0 0 0 12 1569 1704 1678 1354 1130 863 785 797 839 735 817 900 788 768 451 333 163 110 70 40 37 71 101 103
0 0 0 0 0 0 0 0 34 1780 1913 1755 1612 1159 1164 966 864 859 924 934 763 700 405 218 122 125 99 63 77 75 39 33
0 0 0 0 0 0 0 0 0 1172 1459 1856 1767 1687 1468 1306 1086 891 842 909 696 633 470 296 149 136 153 131 110 104 65 21
0 0 0 0 0 0 0 0 0 434 1391 1965 1675 1573 1299 1068 969 987 927 841 729 655 534 383 247 133 218 191 163 133 122 40
0 0 0 0 0 0 0 0 0 459 1649 1911 1711 1585 1511 1199 1191 1102 921 808 740 707 626 404 279 261 245 193 181 154 82 106
0 0 0 0 0 0 0 0 0 0 1499 1747 1846 1658 1392 1241 1328 1039 970 762 744 699 595 524 422 354 297 229 184 163 87 105
0 0 0 0 0 0 0 0 0 0 1379 1822 1816 1598 1309 1107 1314 1156 913 1018 845 686 586 500 464 401 367 239 175 141 125 95
5 2 2 3 2 1 1 0 0 543 1356 1841 1780 1477 1203 1130 1206 1154 942 817 815 724 493 494 433 441 356 256 183 186 129 138
5 4 6 5 6 4 3 3 0 0 1236 1870 1863 1378 973 927 994 996 862 575 748 517 402 328 399 370 303 226 225 215 188 165
7 5 5 5 10 11 11 7 3 1 1 1348 1728 1310 884 716 676 785 744 456 245 257 288 316 305 238 205 188 249 216 204 182
8 5 4 3 4 8 14 7 5 3 4 1 1174 749 347 242 237 375 342 258 73 178 99 128 99 102 98 129 201 199 159 139
6 6 3 0 3 4 5 11 4 6 2 1 181 439 225 195 229 183 132 4 6 21 14 0 2 26 29 47 139 149 97 104
4 5 2 1 4 10 12 19 20 6 6 6 108 175 159 112 79 11 0 0 0 0 0 0 0 0 0 29 88 109 78 72
2 1 3 4 3 5 6 7 9 17 14 8 5 5 59 32 2 1 1 1 0 1 0 0 0 0 0 0 0 0 3 32
2 1 2 4 5 4 11 4 5 7 4 9 5 4 3 1 1 1 0 0 0 0 0 0 0 0 0 0 0 0 2 4
2 3 4 5 4 3 2 2 3 5 4 2 4 5 4 1 2 2 1 0 0 0 0 0 0 0 0 0 0 0 1 1
3 2 3 4 4 5 3 3 3 2 5 6 5 4 4 3 2 2 1 1 1 1 0 0 0 0 0 0 0 1 0 1
4 4 5 4 4 5 3 2 2 2 2 0 2 1 1 1 2 1 2 2 1 2 2 2 1 1 0 0 1 0 0 1
2 2 2 2 3 1 1 1 1 2 2 2 1 0 0 1 1 1 2 2 2 3 2 3 3 2 1 0 0 0 0 1